Regional Weather Roundup
Issued by NWS

Home | Current Version | Previous Version | Text Only | Print | Product List | Glossary On
Versions: 1 2 3 4 5 6 7 8 9 10 11 12 13 14 15 16 17 18 19 20 21 22 23 24 25 26 27 28 29 30 31 32 33 34 35 36 37 38 39 40 41 42 43 44 45 46 47 48 49 50
000
ASUS43 KLSX 200607
RWRMO

WEATHER SUMMARY FOR MISSOURI
NATIONAL WEATHER SERVICE SPRINGFIELD MO
100 AM CDT MON OCT 20 2014

NOTE: "FAIR" INDICATES FEW OR NO CLOUDS BELOW 12,000 FEET WITH NO
       SIGNIFICANT WEATHER AND/OR OBSTRUCTIONS TO VISIBILITY.
       CURRENT SKY AND/OR WEATHER CONDITIONS ARE NOT AVAILABLE FOR
       CHILLICOTHE AND FARMINGTON.

MOZ001>031-035>038-043-044-053-054-200700-
...NORTHERN AND WESTERN MISSOURI...

CITY           SKY/WX    TMP DP  RH WIND       PRES   REMARKS
KANSAS CTY INT CLEAR     54  50  86 SW7       30.01R
6HR MIN TEMP:  53; 6HR MAX TEMP:  61;

KANSAS C DTWN  CLEAR     58  51  78 SW5       30.00F
6HR MIN TEMP:  58; 6HR MAX TEMP:  65;

LEE`S SUMMIT   CLEAR     54  50  86 SW7       30.01F
6HR MIN TEMP:  54; 6HR MAX TEMP:  62;

ST JOSEPH      CLEAR     50  47  89 S5        30.00S
6HR MIN TEMP:  46; 6HR MAX TEMP:  61;

CHILLICOTHE      N/A     57  50  77 SW8       29.99F
6HR MIN TEMP:  50; 6HR MAX TEMP:  58;

KIRKSVILLE     CLEAR     54  49  83 SW8       29.97F
6HR MIN TEMP:  52; 6HR MAX TEMP:  56;


$$
MOZ066>068-077>081-088>096-101>105-200700-
...SOUTHWEST MISSOURI...

CITY           SKY/WX    TMP DP  RH WIND       PRES   REMARKS
SPRINGFIELD    MOCLDY    54  49  83 S3        30.05S
6HR MIN TEMP:  51; 6HR MAX TEMP:  58;

JOPLIN         MOCLDY    57  52  83 S7        30.05F
6HR MIN TEMP:  56; 6HR MAX TEMP:  61; 6HR PCP: TRACE;


$$
MOZ032>034-039>042-045>050-055>058-069>072-200700-
...CENTRAL MISSOURI...

CITY           SKY/WX    TMP DP  RH WIND       PRES   REMARKS
COLUMBIA       CLOUDY    54  49  83 SW7       30.01F
6HR MIN TEMP:  53; 6HR MAX TEMP:  58;

JEFFERSON CITY MOCLDY    55  48  77 S3        30.02S
6HR MIN TEMP:  54; 6HR MAX TEMP:  61;

ROLLA          MOCLDY    52  45  77 SW10      30.02F
6HR MIN TEMP:  52; 6HR MAX TEMP:  54;

SEDALIA        PTCLDY    55  50  83 SW8       30.02F
6HR MIN TEMP:  54; 6HR MAX TEMP:  60;

WHITEMAN AFB   PTCLDY    54  50  87 SW7       30.01S
OSAGE BEACH    PTCLDY    52  46  82 S5        30.03F

$$
MOZ051-052-059>065-200700-
...EAST CENTRAL MISSOURI...

CITY           SKY/WX    TMP DP  RH WIND       PRES   REMARKS
ST LOUIS INTL  CLOUDY    57  46  66 SW7       30.02S
6HR MIN TEMP:  56; 6HR MAX TEMP:  62;

SPIRIT OF STL  CLOUDY    55  48  77 W5        30.01S
6HR MIN TEMP:  49; 6HR MAX TEMP:  55;

ST CHARLES     CLOUDY    55  47  74 SW5       30.01S
6HR MIN TEMP:  51; 6HR MAX TEMP:  55;


$$
MOZ072>076-082>087-097>100-106>115-200700-
...SOUTH CENTRAL AND SOUTHEAST MISSOURI...

CITY           SKY/WX    TMP DP  RH WIND       PRES   REMARKS
CAPE GIRARDEAU CLEAR     48  45  89 CALM      30.07F
6HR MIN TEMP:  46; 6HR MAX TEMP:  54;

FARMINGTON     MOCLDY    50  45  81 S5        30.06F
6HR MIN TEMP:  46; 6HR MAX TEMP:  55;

POPLAR BLUFF   CLEAR     48  44  86 CALM      30.06F
6HR MIN TEMP:  48; 6HR MAX TEMP:  56;

WEST PLAINS    MOCLDY    54  45  71 SW5       30.07F HAZE
6HR MIN TEMP:  48; 6HR MAX TEMP:  54;


$$


USA.gov is the U.S. government's official web portal to all federal, state and local government web resources and services.